www.pogodaiklimat.ru

Погода и климат >> Архив погоды >> Россия >> Якутия >> Охотский Перевоз


ПОГОДА в Охотском Перевозе

  • Прогноз погоды в Охотском Перевозе
  • Монитор погоды в Охотском Перевозе

АРХИВ ПОГОДЫ в Охотском Перевозе

Время (UTC), дата Ветер
(напр.,м/с)
 
Видим.   Явления Облачность Т
(С)
Тd
(С)
f
(%)
Тe
(С)
Тes
(С)
Комфортность P
(гПа)
Po
(гПа)
Тmin
(С)
Tmax
(С)
R
(мм)
R24
(мм)
S
(см)
15 16.01 штиль 0 10 км 4/0
[Cs]
-41.4 -43.2 83 -41 -41 опасность
обморожения
1036.2 1014.9
18 16.01 штиль 0 10 км 3/0
[Cs]
-42.3 -43.8 85 -42 -42 опасность
обморожения
1036.3 1014.9
21 16.01 штиль 0 10 км ясно -44.4 -46.4 80 -44 -44 опасность
обморожения
1036.3 1014.7 -44.4 34
00 17.01 штиль 0 10 км 3/0
[Ci fib]
-45.3 -46.7 86 -45 -45 опасность
обморожения
1036.0 1014.4 -45.3
03 17.01 Ю 1 20 км ясно -43.5 -45.7 79 -49 -49 опасность
обморожения
1035.3 1013.8
06 17.01 Ю 1 20 км ясно -41.2 -43.2 81 -47 -47 опасность
обморожения
1033.6 1012.4
09 17.01 штиль 0 10 км ясно -43.4 -45.7 78 -43 -43 опасность
обморожения
1033.2 1011.9 -41.2
12 17.01 штиль 0 10 км ясно -45.0 -47.2 78 -45 -45 опасность
обморожения
1032.5 1011.0
15 17.01 штиль 0 10 км 1/0
[Ci fib]
-45.4 -47.2 82 -45 -45 опасность
обморожения
1030.9 1009.4
18 17.01 штиль 0 10 км ясно -45.8 -48.1 77 -46 -46 опасность
обморожения
1029.8 1008.2
21 17.01 штиль 0 10 км ясно -46.3 -48.1 82 -46 -46 опасность
обморожения
1029.1 1007.5 -46.3 34
00 18.01 штиль 0 10 км ясно -46.5 -49.0 75 -47 -47 опасность
обморожения
1028.0 1006.4 -46.5
03 18.01 штиль 0 20 км ясно -44.4 -46.4 80 -44 -44 опасность
обморожения
1027.2 1005.9
06 18.01 штиль 0 20 км ясно -42.4 -44.4 81 -42 -42 опасность
обморожения
1026.2 1005.0
09 18.01 штиль 0 10 км ясно -44.4 -46.4 80 -44 -44 опасность
обморожения
1026.0 1004.7 -42.4
12 18.01 штиль 0 10 км ясно -45.2 -47.2 80 -45 -45 опасность
обморожения
1026.2 1004.8
15 18.01 штиль 0 10 км ясно -45.9 -48.1 78 -46 -46 опасность
обморожения
1026.6 1005.1
18 18.01 штиль 0 10 км ясно -46.8 -49.0 78 -47 -47 опасность
обморожения
1026.7 1005.1
21 18.01 штиль 0 4000 м ясно -47.4 -49.0 83 -47 -47 опасность
обморожения
1027.2 1005.6 -47.4 34
00 19.01 штиль 0 10 км ясно -47.9 -50.0 79 -48 -48 опасность
обморожения
1027.8 1006.1 -47.9
03 19.01 Ю 1 20 км ясно -45.3 -47.2 81 -51 -51 опасность
обморожения
1028.2 1006.8
06 19.01 штиль 0 20 км 1/0
[Ci fib]
-44.3 -46.4 79 -44 -44 опасность
обморожения
1028.3 1007.0
09 19.01 штиль 0 10 км ясно -45.5 -47.2 83 -46 -46 опасность
обморожения
1029.5 1007.9 -44.3
12 19.01 штиль 0 10 км 3/0
[Ci fib]
-46.9 -49.0 79 -47 -47 опасность
обморожения
1030.4 1008.7
15 19.01 штиль 0 10 км 8/0
[Ci fib]
-47.8 -50.0 78 -48 -48 опасность
обморожения
1030.4 1008.6
18 19.01 штиль 0 10 км 8/0
[Ci fib]
-48.3 -50.0 82 -48 -48 опасность
обморожения
1029.9 1008.1
21 19.01 штиль 0 10 км 8/0
[Ci fib]
-48.6 -51.2 74 -49 -49 опасность
обморожения
1029.4 1007.5 -48.6 34
00 20.01 штиль 0 10 км 3/0
[Ci fib]
-48.4 -50.0 83 -48 -48 опасность
обморожения
1028.4 1000.7
03 20.01 штиль 0 20 км ясно -45.8 -48.1 77 -46 -45 опасность
обморожения
1026.2 1004.7
06 20.01 Ю 1 20 км ясно -42.4 -43.8 86 -48 -48 опасность
обморожения
1024.1 1002.9
09 20.01 штиль 0 10 км ясно -44.5 -45.9 86 -45 -45 опасность
обморожения
1023.5 1002.2 -42.4
12 20.01 штиль 0 10 км ясно -45.8 -48.1 77 -46 -46 опасность
обморожения
1023.0 1001.6
15 20.01 штиль 0 10 км ясно -47.0 -49.0 80 -47 -47 опасность
обморожения
1022.0 1000.5
18 20.01 штиль 0 10 км ясно -47.8 -50.0 78 -48 -48 опасность
обморожения
1022.0 1000.4
21 20.01 штиль 0 10 км ясно -48.0 -50.0 80 -48 -48 опасность
обморожения
1021.3 999.7 -48.0 34
00 21.01 ЮЗ 1 10 км 3/0
[Ci fib]
-48.0 -50.0 80 -54 -54 опасность
обморожения
1021.0 999.4 -48.3
03 21.01 штиль 0 20 км 3/0
[Ci fib]
-45.7 -48.1 76 -46 -45 опасность
обморожения
1020.7 999.3
06 21.01 штиль 0 20 км 3/0
[Ci fib]
-43.9 -45.7 82 -44 -44 опасность
обморожения
1019.4 998.2
09 21.01 штиль 0 20 км 6/0
[Cs]
-43.5 -45.7 79 -44 -44 опасность
обморожения
1019.5 998.3 -43.5
12 21.01 штиль 0 10 км 10/0
[Cs]
-41.7 -43.8 80 -42 -42 опасность
обморожения
1020.1 999.1
15 21.01 штиль 0 10 км 8/0
[Cs]
-39.1 -40.6 86 -39 -39 опасность
обморожения
1020.0 999.2
18 21.01 штиль 0 4000 м слаб. снег 10/0
[Cs]
-37.6 -39.3 84 -38 -38 опасность
обморожения
1020.6 999.9
21 21.01 С 1 10 км в посл. час снег 9/0
[Cs]
-35.7 -37.5 83 -40 -40 опасность
обморожения
1021.6 1001.1 -43.6 0.0 34
00 22.01 С 3 10 км {снег} 8/0
[As trans Cs]
-33.6 -35.3 85 -44 -44 опасность
обморожения
1021.8 1001.5
03 22.01 С 2 20 км 9/0
[As op]
-32.1 -33.7 86 -40 -40 опасность
обморожения
1022.5 1002.3
06 22.01 С 2 20 км {снег} 8/0
[As trans Cs]
-29.9 -32.4 79 -37 -37 опасность
обморожения
1023.6 1003.5
09 22.01 С 2 10 км ясно -31.0 -32.8 84 -39 -39 опасность
обморожения
1025.5 1005.3 -29.6 0.0
12 22.01 СЗ 2 10 км ясно -32.2 -34.0 84 -40 -40 опасность
обморожения
1026.8 1006.5
15 22.01 Ю 1 10 км ясно -34.0 -35.6 85 -39 -39 опасность
обморожения
1029.7 1009.2
18 22.01 ЮВ 1 10 км 3/0
[Ci fib]
-36.2 -36.8 94 -41 -41 опасность
обморожения
1030.4 1009.8
21 22.01 штиль 0 10 км 8/0
[Cs]
-36.0 -36.8 92 -36 -36 опасность
обморожения
1031.4 1010.7 -36.2 35
00 23.01 штиль 0 10 км 9/0
[Cs]
-36.3 -37.8 86 -36 -36 опасность
обморожения
1032.6 1011.9 -36.5
03 23.01 Ю 1 20 км 9/0
[Ci fib]
-33.9 -36.2 80 -38 -38 опасность
обморожения
1033.3 1012.7
06 23.01 Ю 1 20 км 9/0
[Cc]
-32.2 -34.0 84 -37 -37 опасность
обморожения
1033.4 1012.9
09 23.01 ЮЗ 2 10 км 9/0
[Ci fib]
-31.5 -33.3 84 -39 -39 опасность
обморожения
1034.0 1013.5 -31.4
12 23.01 ЮЗ 1 10 км 8/0
[Ci fib]
-33.7 -35.3 85 -38 -38 опасность
обморожения
1035.1 1014.5

 

Местоположение метеостанции Охотский Перевоз (Якутия, Россия): широта 61.87 долгота 135.50 высота над уровнем моря 141 м.

В архиве по умолчанию представлена погода в Охотском Перевозе за последнюю неделю. Архивные данные за месяц целиком и за предыдущие месяцы, начиная с января 2011 года, Вы можете получить, выбрав интересующий диапазон дат из раскрывающегося списка и нажав кнопку "Ввод!".


*Определитесь, кто Вы:
робот инопланетянин человек

Внимание! Время в таблицах - всемирное. Для получения местного времени необходимо прибавить поправку, которая равна 9 ч.

Смотрите также архив погоды в соседних городах и на ближайших метеорологических станциях:

Погода в Ытык-Кюёле (Якутия, Россия) (118 км)
Погода в Крест-Хальджае (Якутия, Россия) (120 км)
Погода в Теплом Ключе (Якутия, Россия) (121 км)
Погода в Чурапче (Якутия, Россия) (153 км)
Погода в Усть-Мае (Якутия, Россия) (179 км)
Погода в Амге (Якутия, Россия) (220 км)
Погода в Томпо (Якутия, Россия) (232 км)
Погода в Верхоянском Перевозе (Якутия, Россия) (241 км)
Погода в Восточной (Якутия, Россия) (259 км)
Погода в Югоренке (Якутия, Россия) (260 км)

Пояснения к столбцам:

Ветер - указаны скорость ветра в м/с - средняя за 10 мин, порывы в срок и между сроками (в фигурных скобках) и направление, откуда дует ветер: С - северный, СВ - северо-восточный, В - восточный, ЮВ - юго-восточный, Ю - южный, ЮЗ - юго-западный, З - западный, СЗ - северо-западный.
Видимость - горизонтальная дальность видимости в метрах или километрах. При видимости от 1 до 10 км при отсутствии осадков обычно наблюдается дымка, при ухудшении видимости до 1 км и менее - туман. В сухую погоду видимость может ухудшаться дымом, пылью или мглою.
Явления - указаны атмосферные явления, наблюдавшиеся в срок или в последний час перед сроком; фигурными скобками обозначены явления, наблюдавшиеся между сроками (за 1-3 часа до срока); квадратными скобками обозначены град или гололедные отложения с указанием их диаметра в мм.
Облачность - указаны через наклонную черту общая и нижняя облачность в баллах и высота нижней границы облаков в метрах; квадратными скобками обозначены формы облаков: Ci - перистые, Cs - перисто-слоистые, Cc - перисто-кучевые, Ac - высококучевые, As - высокослоистые, Sc - слоисто-кучевые, Ns - слоисто-дождевые, Cu - кучевые, Cb - кучево-дождевые. Подробнее классификацию облаков см. в Атласе облаков (PDF).
T - Температура воздуха - температура, измеренная на высоте 2 м над землей.
Td - Температура точки росы - температура, при понижении до которой содержащийся в воздухе водяной пар достигнет насыщения.
f - Относительная влажность воздуха - влажноcть воздуха, измеренная на высоте 2 м над землей.
Te - Эффективная температура - температура, которую ощущает одетый по сезону человек в тени. Характеристика душности погоды. При расчете учитывается влияние влажности воздуха и скорости ветра на теплоощущения человека.
Tes - Эффективная температура на солнце - температура, которую ощущает человек, с поправкой на солнечный нагрев. Характеристика знойности погоды. Зависит от высоты солнца над горизонтом, облачности и скорости ветра. Ночью, в пасмурную погоду, а также при ветре 12 м/с и более поправка равна нулю.
P - Атмосферное давление - приведенное к уровню моря атмосферное давление.
Po - Атмосферное давление - измеренное на уровне метеостанции атмосферное давление.
Tmin - Минимальная температура - минимум температуры воздуха на высоте 2 м над землей.
Tmax - Максимальная температура - максимум температуры воздуха на высоте 2 м над землей.
R - Количество осадков - Количество выпавших осадков за период времени, мм. При наведении курсора мыши на число - период времени, за который выпало указанное количество осадков.
R24 - Количество осадков - Количество выпавших осадков за 24 часа, мм.
S - Снежный покров - Высота снежного покрова, см. При наведении курсора мыши на число - состояние снежного покрова и степень покрытия местности в баллах.